Location: Durham
(54.7770°N, 1.5720°W)
Time: 02:42:23
(UTC+00:00)

ISS - Visible Passes

Search period start: 18 December 2014 00:00
Search period end: 28 December 2014 00:00
Orbit: 404 x 415 km, 51.6° (Epoch: 17 December)

Date Brightness Start Highest point End Pass type
(mag) Time Alt. Az. Time Alt. Az. Time Alt. Az.
18 Dec -2.7 17:35:22 10° WSW 17:38:34 48° S 17:39:56 28° ESE visible
18 Dec -0.3 19:11:48 10° W 19:12:42 16° WSW 19:12:42 16° WSW visible
19 Dec -2.4 16:44:48 10° WSW 16:47:58 44° S 16:51:08 10° E visible
19 Dec -2.3 18:21:08 10° W 18:24:05 42° SSW 18:24:05 42° SSW visible
20 Dec -2.5 17:30:26 10° W 17:33:37 47° S 17:35:28 22° ESE visible
20 Dec -0.5 19:07:02 10° W 19:08:13 17° WSW 19:08:13 17° WSW visible
21 Dec -2.5 16:39:42 10° WSW 16:42:54 49° S 16:46:06 10° ESE visible
21 Dec -1.9 18:16:10 10° W 18:19:09 32° SSW 18:19:37 30° S visible
22 Dec -2.1 17:25:19 10° W 17:28:25 39° SSW 17:31:04 13° SE visible
22 Dec -0.4 19:02:21 10° WSW 19:03:50 15° SW 19:03:50 15° SW visible
23 Dec -2.2 16:34:26 10° W 16:37:37 45° S 16:40:47 10° ESE visible
23 Dec -1.0 18:11:08 10° W 18:13:43 21° SSW 18:15:21 15° S visible
24 Dec -1.3 17:20:03 10° W 17:22:56 28° SSW 17:25:48 10° SE visible
25 Dec -1.6 16:29:00 10° W 16:32:04 35° SSW 16:35:06 10° SE visible
25 Dec -0.3 18:06:21 10° WSW 18:07:58 13° SW 18:09:34 10° S visible
26 Dec -0.5 17:14:47 10° WSW 17:17:08 18° SSW 17:19:29 10° SSE visible
27 Dec -0.8 16:23:27 10° W 16:26:13 25° SSW 16:28:57 10° SSE visible
